FW2346 Weather Reports


time (UTC)temp
F
wind
direction
speed
knots
gust
knots
rain 1hr
in
rain 24hr
in
rain mn
in
humidity
%
barometer
mb
20260503033003 59 235 0.0 1.7 0.00 0.00 0.00 94 1014.0
20260503001510 60 146 0.0 2.6 0.00 0.00 0.00 87 1015.4
20260503000010 60 240 0.9 4.3 0.00 0.00 0.00 87 1015.5
20260502234505 61 169 0.9 3.5 0.00 0.00 0.00 86 1015.6
20260502223152 61 266 1.7 3.5 0.00 0.00 0.00 82 1015.5
20260502220013 61 279 0.0 4.3 0.00 0.00 0.00 80 1015.6
20260502214501 62 267 1.7 6.1 0.00 0.00 0.00 80 1015.5
20260502210024 62 214 1.7 6.1 0.00 0.00 0.00 82 1015.4
20260502184534 67 240 3.5 8.7 0.00 0.00 0.00 76 1014.5
20260502151509 71 246 1.7 7.8 0.00 0.00 0.00 71 1015.2
20260502123022 71 240 0.0 4.3 0.00 0.00 0.00 66 1016.6
20260502111508 68 125 4.3 7.0 0.00 0.00 0.00 71 1016.9
20260502091504 67 281 0.9 3.5 0.00 0.00 0.00 75 1017.5
20260502070017 61 314 0.9 2.6 0.00 0.00 0.00 81 1017.5
20260502063007 61 1 0.0 0.9 0.00 0.00 0.00 79 1017.3
20260502061502 60 6 0.0 0.0 0.00 0.00 0.00 81 1017.1
20260502060002 60 6 0.0 9.6 0.00 0.00 0.00 80 1017.0
20260502043012 62 11 0.0 0.0 0.00 0.00 0.00 77 1016.7
20260502041511 61 324 0.0 0.0 0.00 0.00 0.00 77 1016.9
20260502040007 60 324 0.0 0.0 0.00 0.00 0.00 79 1016.8
20260502034505 60 324 0.0 2.6 0.00 0.00 0.00 79 1016.8